This demonstration page uses our WeatherBlox Daily Observations layout. Learn more.

Left ArrowRight Arrow

39.01783, -85.05884

Hourly Observations for February 3, 2020

Temp ( °F °C ) Dew Point ( °F °C ) Humidity (%) Winds ( mph kmh ) Pressure ( in mb ) Visibility ( mi km ) Precip ( " mm )
12:52 am 00:52 Mostly Clear 49 9.4 35 1.7 59 59 SW 7 11 29.81 1010 10 16.0934 0 0
1:52 am 01:52 Mostly Clear 48 8.9 35 1.7 61 61 SSW 8 13 29.83 1010 10 16.0934 0 0
2:52 am 02:52 Clear 42 5.6 34 1.1 73 73 SSW 8 13 29.83 1010 10 16.0934 0 0
3:52 am 03:52 Clear 42 5.6 34 1.1 73 73 S 8 13 29.83 1010 10 16.0934 0 0
4:52 am 04:52 Clear 41 5 33 0.6 73 73 S 7 11 29.84 1011 10 16.0934 0 0
5:52 am 05:52 Clear 40 4.4 33 0.6 77 77 S 7 11 29.83 1010 10 16.0934 0 0
6:52 am 06:52 Mostly Cloudy 40 4.4 33 0.6 77 77 S 9 15 29.84 1010 10 16.0934 0 0
7:52 am 07:52 Mostly Cloudy 43 6.1 34 1.1 71 71 S 10 17 29.84 1011 10 16.0934 0 0
8:52 am 08:52 Mostly Cloudy 46 7.8 36 2.2 68 68 S 8 13 29.85 1011 10 16.0934 0 0
9:52 am 09:52 Mostly Cloudy 51 10.6 36 2.2 56 56 SSW 13 20 29.85 1011 10 16.0934 0 0
10:52 am 10:52 Cloudy 54 12.2 37 2.8 53 53 SSW 13 20 29.84 1011 10 16.0934 0 0
11:52 am 11:52 Cloudy 57 13.9 37 2.8 47 47 SSW 12 19 29.84 1010 10 16.0934 0 0
12:52 pm 12:52 Cloudy 59 15 38 3.3 46 46 SW 14 22 29.8 1009 10 16.0934 0 0
1:52 pm 13:52 Cloudy 61 16.1 37 2.8 41 41 SSW 13 20 29.78 1008 10 16.0934 0 0
2:52 pm 14:52 Cloudy 63 17.2 37 2.8 38 38 SSW 14 22 29.75 1007 10 16.0934 0 0
3:52 pm 15:52 Cloudy 63 17.2 37 2.8 38 38 S 16 26 29.75 1007 10 16.0934 0 0
4:52 pm 16:52 Cloudy 62 16.7 37 2.8 40 40 S 12 19 29.74 1007 10 16.0934 0 0
5:52 pm 17:52 Cloudy 62 16.7 38 3.3 41 41 S 12 19 29.74 1007 10 16.0934 0 0
6:52 pm 18:52 Cloudy 63 17.2 37 2.8 38 38 S 9 15 29.75 1007 10 16.0934 0 0
7:52 pm 19:52 Cloudy 64 17.8 36 2.2 35 35 SSW 16 26 29.74 1007 10 16.0934 0 0
8:52 pm 20:52 Mostly Cloudy 64 17.8 36 2.2 35 35 SSW 15 24 29.75 1007 10 16.0934 0 0
9:52 pm 21:52 Cloudy 64 17.8 36 2.2 35 35 SSW 17 28 29.77 1008 10 16.0934 0 0
10:52 pm 22:52 Cloudy 62 16.7 37 2.8 40 40 SSW 14 22 29.76 1008 10 16.0934 0 0
11:52 pm 23:52 Cloudy 61 16.1 38 3.3 43 43 SSW 12 19 29.76 1008 10 16.0934 0 0

Powered by AerisWeather